Regional Weather Roundup
Issued by NWS

Home | Current Version | Previous Version | Text Only | Print | Product List | Glossary Off
Versions: 1 2 3 4 5 6 7 8 9 10 11 12 13 14 15 16 17 18 19 20 21 22 23 24 25 26 27 28 29 30 31 32 33 34 35 36 37 38 39 40 41 42 43 44 45 46 47 48 49 50

000
ASUS43 KBIS 010302
RWRND

NORTH DAKOTA REGIONAL WEATHER ROUNDUP
NATIONAL WEATHER SERVICE BISMARCK ND
1000 PM CDT SUN APR 30 2017

NOTE: "FAIR" INDICATES FEW OR NO CLOUDS BELOW 12,000 FEET WITH NO
SIGNIFICANT WEATHER AND/OR OBSTRUCTIONS TO VISIBILITY.


NDZ001>003-009>011-017-010400-
NORTHWEST NORTH DAKOTA

CITY           SKY/WX    TMP DP  RH WIND       PRES   REMARKS
WILLISTON      MOCLDY    56  31  38 S3        29.79S
MINOT          FAIR      49  26  41 E9        29.82S
MINOT AFB      CLEAR     46  28  48 SE9       29.80F
$$

NDZ018>021-031>035-040>046-010400-
SOUTHWEST NORTH DAKOTA

CITY           SKY/WX    TMP DP  RH WIND       PRES   REMARKS
BISMARCK       FAIR      50  27  40 SE7       29.86S
DICKINSON      FAIR      49  17  28 S5        29.81S
GARRISON         N/A     48  25  40 E6        29.82F
HETTINGER ARPT CLEAR     44  25  47 CALM      29.85S
$$

NDZ004>008-012>016-024-026-027-054-010400-
NORTHEAST NORTH DAKOTA

CITY           SKY/WX    TMP DP  RH WIND       PRES   REMARKS
GRAND FORKS    PTCLDY    47  38  71 CALM      29.87F
GRND FRKS AFB  PTCLDY    42  34  73 CALM      29.88F
DEVILS LAKE    FAIR      49  35  58 SE3       29.89F
$$

NDZ022-023-025-028>030-036>039-047>053-010400-
SOUTHEAST NORTH DAKOTA

CITY           SKY/WX    TMP DP  RH WIND       PRES   REMARKS
FARGO          CLOUDY    48  22  35 E6        29.84F
JAMESTOWN      FAIR      43  32  65 NE7       29.85F
$$




USA.gov is the U.S. government's official web portal to all federal, state and local government web resources and services.